Terminal Aerodrome Forecast
Issued by NWS Sterling, VA

Current Version | Previous Version | Graphics & Text | Print | Product List | Glossary On
Versions: 1 2 3 4 5 6 7 8 9 10 11 12 13 14 15 16 17 18 19 20 21 22 23
000
FTUS41 KLWX 271733
TAFIAD
TAF
KIAD 271733Z 2718/2824 34008G16KT P6SM SCT050
     FM272100 34008KT P6SM BKN050
     FM280300 35005KT P6SM BKN150
     FM282100 05004KT P6SM SCT150=

USA.gov is the U.S. government's official web portal to all federal, state and local government web resources and services.